Emporia, Virginia, United States (23847)
Lat: 36.69N, Lon: 77.54W
Wx Zone: VAZ087
Local Info
Past Weather Observations for Tuesday, September 20, 2016

NOTE: This archive is for the closest National Weather Service station to Emporia. Information may differ from the station used for current weather conditions.

Click here for Long-term Archive

Time Weather Temperature Dewpoint Humidity Pressure Winds Precip Visibility
23:55
Overcast
Light Rain
72°F / 22°C 70°F / 21°C 94% 30.04 in
(1017 mb)
NNW 10.4 mph
(NNW 17 kph)
- 10SM
23:35
Overcast
72°F / 22°C 70°F / 21°C 94% 30.04 in
(1017 mb)
N 9.2 mph
(N 15 kph)
- 10SM
23:15
Overcast
Drizzle
72°F / 22°C 70°F / 21°C 94% 30.04 in
(1017 mb)
N 8.1 mph
(N 13 kph)
- 10SM
22:55
Drizzle
72°F / 22°C 70°F / 21°C 94% 30.04 in
(1017 mb)
N 9.2 mph
(N 15 kph)
0.02 in
(0.51 mm)
22:35
Overcast
Light Rain
72°F / 22°C 70°F / 21°C 94% 30.04 in
(1017 mb)
N 9.2 mph
(N 15 kph)
0.02 in
(0.51 mm)
10SM
22:15
Overcast
Rain
72°F / 22°C 70°F / 21°C 94% 30.04 in
(1017 mb)
N 8.1 mph
(N 13 kph)
0.01 in
(0.25 mm)
7SM
21:55
Overcast
Heavy Rain
72°F / 22°C 70°F / 21°C 94% 30.04 in
(1017 mb)
NNW 11.5 mph
(NNW 19 kph)
0.02 in
(0.51 mm)
5SM
21:35
Overcast
Light Snow
72°F / 22°C 70°F / 21°C 94% 30.04 in
(1017 mb)
NNW 11.5 mph
(NNW 19 kph)
- 5SM
21:15
Overcast
Snow
72°F / 22°C 70°F / 21°C 94% 30.04 in
(1017 mb)
NNW 9.2 mph
(NNW 15 kph)
- 10SM
20:55
Drizzle
72°F / 22°C 70°F / 21°C 94% 30.04 in
(1017 mb)
NNW 10.4 mph
(NNW 17 kph)
-
20:35
Overcast
Light Rain
72°F / 22°C 70°F / 21°C 94% 30.04 in
(1017 mb)
N 10.4 mph
(N 17 kph)
- 10SM
20:15
Overcast
Rain
72°F / 22°C 70°F / 21°C 94% 30.04 in
(1017 mb)
NNW 13.8 mph
(NNW 22 kph)
- 7SM
19:55
Overcast
72°F / 22°C 70°F / 21°C 94% 30.04 in
(1017 mb)
NNW 10.4 mph
(NNW 17 kph)
- 10SM
19:35
Overcast
72°F / 22°C 70°F / 21°C 94% 30.04 in
(1017 mb)
NNW 12.7 mph
(NNW 20 kph)
- 10SM
19:15
Overcast
72°F / 22°C 70°F / 21°C 94% 30.04 in
(1017 mb)
NE 4.6 mph
(NE 7 kph)
-
18:55
Overcast
Light Rain
72°F / 22°C 70°F / 21°C 94% 30.04 in
(1017 mb)
NNW 9.2 mph
(NNW 15 kph)
0.01 in
(0.25 mm)
7SM
18:35
Overcast
Rain
72°F / 22°C 70°F / 21°C 94% 30.04 in
(1017 mb)
NNW 8.1 mph
(NNW 13 kph)
0.01 in
(0.25 mm)
7SM
18:15
Overcast
Light Snow
72°F / 22°C 70°F / 21°C 94% 30.04 in
(1017 mb)
NNW 8.1 mph
(NNW 13 kph)
- 5SM
17:55
Overcast
Light Snow
72°F / 22°C 70°F / 21°C 94% 30.04 in
(1017 mb)
NW 8.1 mph
(NW 13 kph)
0.02 in
(0.51 mm)
7SM
17:35
Overcast
Rain
72°F / 22°C 70°F / 21°C 94% 30.04 in
(1017 mb)
NW 9.2 mph
(NW 15 kph)
0.01 in
(0.25 mm)
5SM
17:15
Overcast
Light Snow
72°F / 22°C 70°F / 21°C 94% 30.04 in
(1017 mb)
NNW 10.4 mph
(NNW 17 kph)
- 4SM
16:55
Overcast
72°F / 22°C 70°F / 21°C 94% 30.04 in
(1017 mb)
NNW 10.4 mph
(NNW 17 kph)
- 10SM
16:35
Overcast
72°F / 22°C 70°F / 21°C 94% 30.04 in
(1017 mb)
NNW 9.2 mph
(NNW 15 kph)
- 10SM
16:15
Overcast
Light Snow
72°F / 22°C 70°F / 21°C 94% 30.04 in
(1017 mb)
NNW 10.4 mph
(NNW 17 kph)
- 10SM
15:55
Overcast
Light Rain
72°F / 22°C 70°F / 21°C 94% 30.04 in
(1017 mb)
NNW 10.4 mph
(NNW 17 kph)
- 10SM
15:35
Overcast
Drizzle
72°F / 22°C 70°F / 21°C 94% 30.04 in
(1017 mb)
NW 9.2 mph
(NW 15 kph)
-
15:15
Overcast
Rain
72°F / 22°C 70°F / 21°C 94% 30.04 in
(1017 mb)
NNW 10.4 mph
(NNW 17 kph)
- 10SM
14:55
Overcast
72°F / 22°C 72°F / 22°C 100% 30.04 in
(1017 mb)
NNW 9.2 mph
(NNW 15 kph)
-
14:35
Overcast
72°F / 22°C 72°F / 22°C 100% 30.04 in
(1017 mb)
NNW 8.1 mph
(NNW 13 kph)
-
14:15
Overcast
73°F / 23°C 72°F / 22°C 94% 30.04 in
(1017 mb)
NW 9.2 mph
(NW 15 kph)
-
13:55
Overcast
Light Rain
72°F / 22°C 72°F / 22°C 100% 30.04 in
(1017 mb)
NW 8.1 mph
(NW 13 kph)
- 10SM
13:35
Overcast
Drizzle
72°F / 22°C 72°F / 22°C 100% 30.04 in
(1017 mb)
NNW 8.1 mph
(NNW 13 kph)
- 4SM
13:15
Overcast
Light Rain
72°F / 22°C 70°F / 21°C 94% 30.04 in
(1017 mb)
N 6.9 mph
(N 11 kph)
- 10SM
12:55
Overcast
Light Snow
72°F / 22°C 70°F / 21°C 94% 30.04 in
(1017 mb)
NW 10.4 mph
(NW 17 kph)
- 7SM
12:35
Overcast
Light Rain
72°F / 22°C 70°F / 21°C 94% 30.04 in
(1017 mb)
NNW 8.1 mph
(NNW 13 kph)
- 4SM
12:15
Overcast
Light Rain
72°F / 22°C 70°F / 21°C 94% 30.04 in
(1017 mb)
NNW 11.5 mph
(NNW 19 kph)
- 10SM
11:55
Overcast
Light Rain
72°F / 22°C 70°F / 21°C 94% 30.04 in
(1017 mb)
NNW 12.7 mph
(NNW 20 kph)
- 10SM
11:15
Overcast
72°F / 22°C 70°F / 21°C 94% 30.06 in
(1018 mb)
NNW 11.5 mph
(NNW 19 kph)
- 10SM
10:55
Overcast
Drizzle
72°F / 22°C 70°F / 21°C 94% 30.06 in
(1018 mb)
NNW 10.4 mph
(NNW 17 kph)
0.08 in
(2.03 mm)
10SM
10:35
Overcast
Light Rain
70°F / 21°C 70°F / 21°C 100% 30.06 in
(1018 mb)
NNW 8.1 mph
(NNW 13 kph)
0.08 in
(2.03 mm)
5SM
10:15
Overcast
Heavy Rain
70°F / 21°C 70°F / 21°C 100% 30.06 in
(1018 mb)
NNW 8.1 mph
(NNW 13 kph)
0.08 in
(2.03 mm)
09:55
Overcast
Heavy Rain
70°F / 21°C 70°F / 21°C 100% 30.06 in
(1018 mb)
NNW 10.4 mph
(NNW 17 kph)
0.06 in
(1.52 mm)
2SM
09:35
Overcast
Rain
70°F / 21°C 70°F / 21°C 100% 30.06 in
(1018 mb)
NNW 8.1 mph
(NNW 13 kph)
0.01 in
(0.25 mm)
2 1/2SM
09:15
Overcast
Light Rain
70°F / 21°C 68°F / 20°C 94% 30.06 in
(1018 mb)
NNW 6.9 mph
(NNW 11 kph)
- 10SM
08:55
Overcast
70°F / 21°C 68°F / 20°C 94% 30.06 in
(1018 mb)
NNW 6.9 mph
(NNW 11 kph)
-
08:35
Overcast
70°F / 21°C 68°F / 20°C 94% 30.06 in
(1018 mb)
NNW 10.4 mph
(NNW 17 kph)
- 10SM
08:15
Overcast
70°F / 21°C 68°F / 20°C 94% 30.04 in
(1017 mb)
NNW 9.2 mph
(NNW 15 kph)
- 10SM
07:55
Overcast
70°F / 21°C 68°F / 20°C 94% 30.04 in
(1017 mb)
NNW 9.2 mph
(NNW 15 kph)
-
07:35
Overcast
70°F / 21°C 68°F / 20°C 94% 30.04 in
(1017 mb)
NNW 8.1 mph
(NNW 13 kph)
- 10SM
07:15
Overcast
70°F / 21°C 68°F / 20°C 94% 30.04 in
(1017 mb)
NNW 8.1 mph
(NNW 13 kph)
- 10SM
06:55
Overcast
70°F / 21°C 68°F / 20°C 94% 30.04 in
(1017 mb)
NNW 6.9 mph
(NNW 11 kph)
- 10SM
06:35
Mostly Cloudy
70°F / 21°C 68°F / 20°C 94% 30.04 in
(1017 mb)
NNW 5.8 mph
(NNW 9 kph)
- 10SM
06:15
Mostly Cloudy
70°F / 21°C 68°F / 20°C 94% 30.01 in
(1016 mb)
NNW 6.9 mph
(NNW 11 kph)
- 10SM
05:55
Overcast
70°F / 21°C 68°F / 20°C 94% 30.01 in
(1016 mb)
NW 6.9 mph
(NW 11 kph)
- 10SM
04:35
Overcast
70°F / 21°C 68°F / 20°C 94% 30.01 in
(1016 mb)
NNW 8.1 mph
(NNW 13 kph)
- 10SM
04:15
Overcast
Drizzle
68°F / 20°C 68°F / 20°C 100% 30.01 in
(1016 mb)
NNW 6.9 mph
(NNW 11 kph)
- 7SM
03:55
Overcast
Snow
68°F / 20°C 68°F / 20°C 100% 30.01 in
(1016 mb)
NNW 9.2 mph
(NNW 15 kph)
- 10SM
03:35
Overcast
68°F / 20°C 68°F / 20°C 100% 30.01 in
(1016 mb)
N 9.2 mph
(N 15 kph)
- 10SM
03:15
Overcast
70°F / 21°C 68°F / 20°C 94% 30.01 in
(1016 mb)
NNW 9.2 mph
(NNW 15 kph)
- 10SM
02:55
Overcast
70°F / 21°C 68°F / 20°C 94% 30.01 in
(1016 mb)
NNW 8.1 mph
(NNW 13 kph)
0.02 in
(0.51 mm)
10SM
02:35
Overcast
Drizzle
70°F / 21°C 68°F / 20°C 94% 30.01 in
(1016 mb)
NNW 5.8 mph
(NNW 9 kph)
0.01 in
(0.25 mm)
10SM
02:15
Overcast
Heavy Rain
70°F / 21°C 68°F / 20°C 94% 30.01 in
(1016 mb)
N 5.8 mph
(N 9 kph)
0.01 in
(0.25 mm)
7SM
01:55
Overcast
Drizzle
70°F / 21°C 68°F / 20°C 94% 30.01 in
(1016 mb)
NNW 6.9 mph
(NNW 11 kph)
0.03 in
(0.76 mm)
10SM
01:35
Overcast
Light Snow
70°F / 21°C 70°F / 21°C 100% 30.01 in
(1016 mb)
NNW 5.8 mph
(NNW 9 kph)
0.03 in
(0.76 mm)
4SM
01:15
Overcast
Rain
68°F / 20°C 68°F / 20°C 100% 30.04 in
(1017 mb)
N 3.5 mph
(N 6 kph)
0.02 in
(0.51 mm)
4SM
00:55
Overcast
Light Snow
68°F / 20°C 68°F / 20°C 100% 30.04 in
(1017 mb)
NNW 4.6 mph
(NNW 7 kph)
- 10SM
00:35
Overcast
Drizzle
68°F / 20°C 68°F / 20°C 100% 30.04 in
(1017 mb)
NNW 5.8 mph
(NNW 9 kph)
- 10SM
00:15
Overcast
68°F / 20°C 68°F / 20°C 100% 30.04 in
(1017 mb)
NNW 5.8 mph
(NNW 9 kph)
- 10SM
Time Weather Temperature Dewpoint Humidity Pressure Winds Precip Visibility


Weather for websites

WeatherForYou.com, LLC is not responsible for any damages or problems caused by this service. Current weather conditions are obtained from the closest station including government and personal stations which may have varying degrees of accuracy. Weather forecasts are derived from the NOAA NDFD. Like all things, this site belongs to Jesus Christ... He just trusts us to maintain it. If you have any questions or comments email webmaster@weatherforyou.com

Copyright © 2016, WeatherForYou.com LLC. All rights reserved.